Location: Muenchen
(48.1800°N, 11.5800°E)
Time: 14:40:51
(UTC+02:00)

ISS - Visible Passes

Search period start: 25 October 2014 00:00
Search period end: 03 November 2014 23:00
Orbit: 412 x 416 km, 51.6° (Epoch: 25 October)

Date Brightness Start Highest point End Pass type
(mag) Time Alt. Az. Time Alt. Az. Time Alt. Az.
25 Oct -3.0 18:37:43 10° WNW 18:41:04 70° SSW 18:44:23 10° ESE visible
25 Oct -0.5 20:15:26 10° WSW 20:17:16 14° SW 20:18:41 11° SSW visible
26 Oct -0.9 18:25:36 10° W 18:28:15 22° SW 18:30:53 10° SSE visible
27 Oct -1.5 17:36:05 10° W 17:39:08 33° SW 17:42:11 10° SSE visible
29 Oct -0.3 17:34:47 10° W 17:36:53 16° SW 17:38:59 10° S visible
